SCP
0 0 0 0 0 0 0 0 0 0 0 0 0 0 0 0 0 0 0 0 0 0 0 0 0 0 0 0 0 0 0 0 0 0 0 0 0 0 0 0 0 0 0
0 0 0 0 0 0 0 0 0 0 0 0 0 0 0 0 0 0 0 0 0 0 0 0 0 0 0 0 0 0 0 0 0 0 0 0 0 0 0 0 0 0 0
0 0 0 0 0 0 0 0 0 0 0 0 0 0 0 0 0 0 0 0 0 0 0 0 0 0 0 0 0 0 0 0 0 0 0 0 0 0 0 0 0 0 0
0 0 0 0 0 0 0 0 0 0 0 0 0 0 0 0 0 0 0 0 0 0 0 0 0 0 0 0 0 0 0 0 0 0 0 0 0 0 0 0 0 0 0
0 0 0 0 0 0 0 0 0 0 0 0 0 0 0 0 0 0 0 0 0 0 0 0 0 0 0 0 0 0 0 0 0 0 0 0 0 0 0 0 0 0 0
0 0 0 0 0 0 0 0 0 0 0 0 0 0 0 0 0 0 0 0 0 0 0 0 0 0 0 0 0 0 0 0 0 0 0 0 0 0 0 0 0 0 0
0 0 0 0 0 0 0 0 0 0 0 0 0 0 0 0 0 0 0 0 0 0 0 0 0 0 0 0 0 0 0 0 0 0 0 0 0 0 0 0 0 0 0
0 0 0 0 0 0 0 0 0 0 0 0 0 0 0 0 0 0 0 0 0 0 0 0 0 0 0 0 0 0 0 0 0 0 0 0 0 0 0 0 0 0 0
0 0 0 0 0 0 0 0 0 0 0 0 0 0 0 0 0 0 0 0 0 0 0 0 0 0 0 0 0 0 0 0 0 0 0 0 0 0 0 0 0 0 0
0 0 0 0 0 0 0 0 0 0 0 0 0 0 0 0 0 0 0 0 0 0 0 0 0 0 0 0 0 0 0 0 0 0 0 0 0 0 0 0 0 0 0
0 0 0 0 0 0 0 0 0 0 0 0 0 0 0 0 0 0 0 0 0 0 0 0 0 0 0 0 0 0 0 0 0 0 0 0 0 0 0 0 0 0 0
0 0 0 0 0 0 0 0 0 0 0 0 0 0 0 -0 0 0 0 0 0 0 0 0 0 0 0 0 0 0 0 0 0 0 0 0 0 0 0 0 0 0 0
0 0 0 0 0 0 0 0 0 0 0 0 0 0 0 -0 -0 0 0 0 0 0 0 0 0 0 0 0 0 0 0 0 0 0 0 0 0 0 0 0 0 0 0
0 0 0 0 0 0 0 0 0 0 0 0 0 0 0 -0 -0 -0 0 0 0 0 0 0 0 0 0 0 0 0 0 0 0 0 0 0 0 0 0 0 0 0 0
0 0 0 0 0 0 0 0 0 0 0 0 0 0 0 -0 -0 -0 -0 0 0 0 0 0 0 0 0 0 0 0 0 0 0 0 0 0 0 0 0 0 0 0 0
0 0 0 0 0 0 0 0 0 0 0 0 0 0 0 0 -0 -0 -0 -0 0 0 0 0 0 0 0 0 0 0 0 0 0 0 0 0 0 0 0 0 0 0 0
0 0 0 0 0 0 0 0 0 0 0 0 0 0 0 0 -0 -0 -0 -0 -0 0 0 0 0 0 0 0 0 0 0 0 0 0 0 0 0 0 0 0 0 0 0
0 0 0 0 0 0 0 0 0 0 0 0 0 0 0 0 0 -0 -0 -0 -0 -0 -0 0 0 0 0 0 0 0 0 0 0 0 0 0 0 0 0 0 0 0 0
0 0 0 0 0 0 0 0 0 0 0 0 0 0 0 0 0 0 -0 -0 -0 -0 -0 0 0 -0 0 0 0 0 0 0 0 0 0 0 0 0 0 0 0 0 0
0 0 0 0 0 0 0 0 0 0 0 0 0 0 0 0 0 0 0 0 -0 -0 -0 0 0 0 0 0 0 0 0 0 0 0 0 0 0 0 0 0 0 0 0
0 0 0 0 0 0 0 0 0 0 0 0 0 0 0 0 0 0 0 0 0 0 0 0 0 0 0 0 0 0 0 0 0 0 0 0 0 0 0 0 0 0 0
0 0 0 0 0 0 0 0 0 0 0 0 0 0 0 0 0 0 0 0 0 0 0 0 0 0 0 0 0 0 0 0 0 0 0 0 0 0 0 0 0 0 0
0 0 0 0 0 0 0 0 0 0 0 0 0 0 0 0 0 0 0 0 0 0 0 0 0 0 0 0 -0 0 0 0 0 0 0 0 0 0 0 0 0 0 0
0 0 0 0 0 0 0 0 0 0 0 0 0 0 0 0 0 0 0 0 0 0 0 0 0 0 0 0 -0 0 0 0 0 0 0 0 0 0 0 0 0 0 0
0 0 0 0 0 0 0 0 0 0 0 0 0 0 0 0 0 0 0 0 0 0 0 0 0 0 0 0 0 0 0 0 0 0 0 0 0 0 0 0 0 0 0
0 0 0 0 0 0 0 0 0 0 0 0 0 0 0 0 0 0 0 0 0 0 0 0 0 0 0 0 0 0 0 0 0 0 0 0 0 0 0 0 0 0 0
Wind_Speed
2 3 2 2 3 3 3 2 3 4 4 4 4 5 5 5 5 5 4 9 10 10 11 11 11 12 11 11 12 12 11 11 11 11 11 11 11 11 11 11 11 11 11
2 3 3 2 2 3 3 3 3 4 3 4 4 5 5 5 5 5 4 6 9 9 10 11 11 11 11 11 11 11 10 10 10 11 11 10 10 10 10 10 10 10 10
3 3 3 2 2 3 3 3 3 4 4 4 4 5 4 4 5 5 4 4 4 7 9 10 10 10 10 11 11 11 10 10 9 9 9 9 9 9 9 9 9 9 9
3 3 3 2 2 3 3 3 3 4 4 4 3 3 4 4 5 5 5 4 4 4 6 9 9 10 10 10 10 10 11 11 10 9 8 8 8 8 8 8 8 8 8
3 3 3 2 3 3 3 3 3 3 4 4 4 4 4 4 4 5 5 5 4 4 3 6 9 9 9 9 9 9 9 9 9 9 8 8 7 7 7 6 7 6 6
3 3 3 2 3 3 3 3 4 4 4 4 5 4 3 3 4 4 4 4 4 4 4 4 4 5 8 8 8 8 8 9 9 8 8 8 7 6 5 5 5 5 5
3 3 3 2 3 3 4 4 4 5 4 3 4 3 3 4 4 3 3 3 4 4 4 4 3 3 3 7 8 7 7 7 7 7 7 7 7 7 6 5 5 4 5
3 3 3 2 3 4 4 4 5 3 2 2 3 3 2 2 3 2 3 3 3 3 4 4 4 4 3 3 6 8 7 6 6 6 6 6 6 7 6 6 6 5 5
3 3 3 2 3 4 4 4 4 4 3 1 2 3 3 3 1 1 2 2 3 3 2 2 3 3 4 3 3 5 8 8 6 5 5 6 6 6 7 7 6 6 6
3 3 3 3 4 3 4 3 3 3 5 3 1 1 2 3 4 1 1 1 2 2 2 2 2 2 3 2 3 6 7 7 7 7 6 6 6 6 6 7 7 7 6
3 3 3 3 4 3 4 3 3 3 3 3 2 1 1 2 2 3 2 1 1 1 1 1 1 1 2 2 2 4 6 6 6 7 7 7 6 6 7 7 7 7 7
2 2 2 3 3 3 4 4 4 3 3 3 2 2 2 2 2 2 2 1 1 1 0 0 1 1 1 1 2 4 5 5 6 6 7 7 8 7 7 8 8 8 8
1 2 3 3 3 3 4 4 4 3 3 3 3 2 1 1 1 2 3 2 1 1 1 0 0 1 1 1 1 3 3 4 5 6 6 7 8 8 8 8 8 8 8
2 3 3 3 3 3 3 4 3 3 3 3 3 3 2 1 1 2 2 3 1 0 1 1 0 1 1 1 1 2 2 4 5 6 6 7 7 8 8 8 9 8 9
3 4 4 4 3 3 3 4 3 4 4 3 3 3 2 1 2 2 2 2 3 2 2 2 1 0 1 1 1 1 1 4 5 6 6 6 7 7 8 8 8 8 9
3 4 4 4 4 3 3 3 3 3 4 3 3 3 2 1 2 2 2 1 1 2 2 1 1 1 1 1 3 2 2 4 5 6 6 6 7 7 7 7 8 8 9
3 4 4 4 4 4 4 4 4 4 4 4 3 4 3 2 2 2 2 1 1 2 2 1 1 1 1 2 2 2 2 2 2 5 6 7 7 7 7 7 8 8 8
3 3 4 4 4 4 4 5 5 5 5 5 5 4 4 3 3 2 2 2 2 2 2 2 1 1 2 2 2 2 3 3 2 4 6 7 7 7 7 8 8 8 8
3 3 3 4 4 4 5 5 5 5 5 5 5 5 5 5 4 3 3 3 2 1 1 2 2 1 1 1 2 2 3 3 3 4 6 6 7 8 8 8 8 8 9
3 3 3 3 3 4 4 4 5 5 4 4 4 5 5 6 6 5 4 4 3 2 2 2 2 1 1 1 1 2 3 2 3 4 4 5 7 8 9 9 9 8 9
3 3 3 3 3 3 3 4 4 5 5 4 4 4 5 6 7 6 5 4 4 3 2 2 2 1 1 1 1 1 3 3 3 2 3 4 4 3 4 7 8 9 10
2 3 3 3 3 3 4 4 4 4 4 5 5 4 4 5 7 8 8 7 6 6 5 3 3 3 3 2 1 1 2 3 3 2 3 5 3 4 4 3 7 10 11
2 2 3 3 3 3 5 5 5 3 3 4 4 4 3 4 5 4 5 5 5 7 7 5 5 5 4 4 3 3 3 3 4 3 4 5 3 5 4 5 9 11 12
2 2 3 3 3 4 5 6 5 3 3 3 4 4 4 4 5 5 4 4 3 4 5 4 5 5 5 4 4 4 4 4 4 3 3 5 4 4 5 4 8 10 11
2 2 2 3 3 4 5 6 5 3 3 4 4 4 5 5 7 7 5 4 3 3 3 4 4 4 6 6 5 2 2 3 4 3 2 3 3 4 4 4 5 8 10
2 2 2 2 3 3 5 6 5 3 3 3 3 4 6 7 8 9 6 5 5 4 3 2 2 3 3 4 6 4 4 4 3 3 2 1 2 3 4 3 2 4 6
Wind_Direction
106 103 93 104 103 105 106 94 90 86 78 70 71 74 74 76 78 76 74 72 72 75 83 85 83 82 83 82 81 79 78 76 72 70 67 66 66 63 61 58 58 58 54
97 101 88 93 103 103 99 100 97 92 84 79 71 69 71 75 77 81 83 75 72 73 79 84 84 83 83 83 83 81 78 76 73 70 68 64 63 61 60 57 56 54 51
97 103 97 87 103 101 98 97 91 92 89 84 75 68 70 73 73 74 78 79 72 69 75 80 81 81 80 81 81 78 76 74 72 70 67 63 60 57 56 55 52 49 48
96 106 97 86 101 103 108 111 106 103 97 89 81 72 66 68 68 68 67 68 68 67 66 71 73 76 78 79 79 76 73 69 65 64 61 58 56 53 52 53 51 47 43
95 107 104 92 111 109 109 118 110 109 108 97 88 79 71 71 67 69 68 64 65 72 71 68 65 67 71 74 74 72 68 65 61 58 55 52 50 49 47 45 43 40 36
94 106 112 102 118 117 109 107 112 100 106 106 98 82 71 75 70 64 69 64 60 62 66 68 64 60 63 66 68 69 65 62 60 55 51 48 44 38 34 31 29 25 23
104 102 106 118 128 122 122 119 117 115 107 108 98 82 58 69 76 64 62 63 58 58 64 61 59 62 60 58 58 61 60 58 55 51 46 42 36 31 26 18 12 8 6
109 112 103 123 132 125 122 122 123 117 119 117 123 127 104 60 43 61 69 70 66 61 63 66 63 63 68 60 49 50 46 41 43 41 37 33 26 20 12 6 3 356 348
115 114 108 119 128 127 136 137 136 127 141 126 91 125 139 162 124 24 63 73 70 65 57 64 66 60 69 65 50 41 42 36 27 23 21 16 13 10 10 5 359 357 359
115 111 116 124 129 127 130 143 134 131 140 145 119 53 99 129 141 141 1 64 72 67 63 58 65 70 72 67 50 43 39 30 23 16 9 7 4 2 359 359 352 348 347
122 116 130 136 132 134 137 135 125 123 134 140 141 120 86 76 102 136 168 196 31 44 65 52 85 97 85 74 54 36 33 23 12 6 2 356 351 351 350 349 347 342 340
126 129 143 139 136 138 146 144 137 129 127 125 121 121 130 140 156 138 151 170 196 238 293 241 170 128 103 84 50 28 20 12 1 354 352 353 351 344 338 337 336 336 335
149 179 153 141 142 146 149 144 140 141 134 136 143 139 124 143 143 130 134 148 164 231 211 223 191 117 93 77 48 13 3 357 350 347 344 345 347 346 343 335 330 330 329
180 168 157 149 149 150 150 147 144 151 140 144 148 143 132 129 104 118 141 143 143 218 211 233 276 121 76 52 10 4 338 339 335 334 333 338 341 339 338 336 331 325 327
174 159 156 156 158 155 156 156 156 159 154 154 153 151 147 144 131 122 123 147 157 176 218 216 200 32 6 339 303 291 293 317 323 322 326 331 332 331 331 331 330 328 323
158 165 165 163 162 161 160 159 160 159 155 161 161 158 160 151 143 141 153 161 158 167 205 219 223 294 314 317 311 309 281 306 307 312 318 323 324 324 324 323 325 326 327
159 172 174 169 168 170 169 165 173 169 167 169 171 172 175 164 163 164 156 166 170 153 200 258 300 317 315 306 304 305 288 277 281 298 306 311 312 315 318 318 319 319 319
168 174 173 177 182 179 175 177 180 178 180 181 184 179 181 177 173 172 172 185 188 175 184 228 258 259 274 278 290 294 304 300 286 294 300 302 301 306 310 312 314 313 313
169 169 171 185 189 189 186 186 182 183 189 189 190 188 187 183 188 187 188 191 189 185 173 201 236 244 258 277 297 301 306 314 310 307 301 297 302 307 309 311 312 313 313
171 170 176 184 191 198 194 184 182 184 191 195 197 197 195 194 195 192 195 193 186 177 175 188 216 228 251 272 281 300 312 315 309 315 317 318 317 314 310 308 309 312 312
183 175 178 182 184 196 197 189 186 190 190 197 202 204 205 204 205 203 203 191 185 187 189 199 212 232 245 254 258 280 298 316 309 313 325 320 319 308 303 303 307 309 309
177 174 184 185 192 208 194 196 198 196 199 200 206 206 206 204 206 214 219 214 203 199 200 207 222 225 235 245 260 275 293 310 299 315 321 305 304 299 293 283 295 300 303
178 186 195 193 202 202 201 208 211 204 202 201 201 200 212 214 206 195 209 218 222 225 220 211 216 223 229 226 225 249 257 271 276 287 305 291 288 289 289 295 302 298 298
188 193 203 203 206 209 208 214 214 212 206 206 208 207 206 205 206 197 194 199 210 225 228 223 213 217 223 218 216 232 244 271 278 275 279 283 292 290 298 295 298 302 308
194 204 206 203 209 211 212 217 216 205 211 211 213 213 210 207 213 215 204 198 212 233 251 242 239 244 251 255 249 231 234 259 280 279 260 261 286 302 294 282 292 306 315
210 211 220 213 214 212 215 218 216 207 211 209 207 212 217 219 218 217 207 198 209 218 211 222 238 252 249 248 254 236 222 236 262 272 249 260 286 318 306 291 303 317 314